Location: Makakahi
(40.6833°S, 175.6000°E)
Time: 22:39:41
(UTC+00:00)

FENGYUN 1C DEB - Pass Details

Date: 12 December 2024
Orbit: 841 x 907 km, 98.9° (Epoch: 11 January)

Event Time Altitude Azimuth Distance (km) Brightness Sun altitude
Rises 09:25:05 0° 168° (SSE) 3,494 ? -15.4°
Reaches altitude 10° 09:27:30 10° 169° (SSE) 2,539 ? -15.7°
Maximum altitude 09:33:08 79° 254° (WSW) 883 ? -16.3°
Drops below altitude 10° 09:38:38 10° 340° (NNW) 2,473 ? -17.0°
Enters shadow 09:39:13 - 340° (NNW) 2,705 ? -17.0°
